Terminal Aerodrome Forecast
Issued by NWS

Home | Current Version | Previous Version | Graphics & Text | Print | Product List | Glossary On
Versions: 1 2 3 4 5 6 7 8 9 10 11 12 13 14 15 16 17 18 19 20 21 22 23 24 25 26 27 28
000
FTUS43 KABR 252000 AAB
TAFMBG
TAF AMD
KMBG 252039Z 2521/2618 36014KT P6SM SCT019 OVC080
     FM252200 35016G24KT P6SM SCT040 BKN100
     FM260100 34010KT P6SM SCT070 SCT120=

USA.gov is the U.S. government's official web portal to all federal, state and local government web resources and services.